TimeEST,TemperatureF,Dew PointF,Humidity,Sea Level PressureIn,VisibilityMPH,Wind Direction,Wind SpeedMPH,Gust SpeedMPH,PrecipitationIn,Events,Conditions,WindDirDegrees,DateUTC
12:15 AM,55.8,55.4,99,29.98,7.0,Calm,Calm,-,N/A,,Clear,0,2013-01-17 05:15:00
12:35 AM,55.6,55.4,99,29.98,4.0,Calm,Calm,-,N/A,,Clear,0,2013-01-17 05:35:00
12:55 AM,56.5,56.5,100,29.97,4.0,SSE,3.5,-,N/A,,Clear,150,2013-01-17 05:55:00
1:15 AM,55.2,55.2,100,29.97,7.0,Calm,Calm,-,N/A,,Clear,0,2013-01-17 06:15:00
1:35 AM,57.0,57.0,100,29.97,5.0,Calm,Calm,-,N/A,,Clear,0,2013-01-17 06:35:00
2:15 AM,56.5,56.5,100,29.98,5.0,SSE,3.5,-,N/A,,Clear,160,2013-01-17 07:15:00
2:35 AM,56.5,56.5,100,29.97,5.0,Calm,Calm,-,N/A,,Clear,0,2013-01-17 07:35:00
2:55 AM,55.2,55.2,100,29.97,4.0,Calm,Calm,-,N/A,,Clear,0,2013-01-17 07:55:00
3:15 AM,54.0,54.0,100,29.96,7.0,Calm,Calm,-,N/A,,Clear,0,2013-01-17 08:15:00
3:35 AM,54.1,54.1,100,29.96,5.0,Calm,Calm,-,N/A,,Clear,0,2013-01-17 08:35:00
3:55 AM,55.8,55.8,100,29.95,3.0,SSE,3.5,-,N/A,,Clear,150,2013-01-17 08:55:00
4:15 AM,55.4,55.4,100,29.95,2.5,Calm,Calm,-,N/A,,Clear,0,2013-01-17 09:15:00
4:35 AM,53.6,53.6,100,29.94,5.0,Calm,Calm,-,N/A,,Clear,0,2013-01-17 09:35:00
4:55 AM,54.0,54.0,100,29.94,4.0,Calm,Calm,-,N/A,,Clear,0,2013-01-17 09:55:00
5:15 AM,54.7,54.7,100,29.94,4.0,Calm,Calm,-,N/A,,Clear,0,2013-01-17 10:15:00
5:35 AM,54.0,54.0,100,29.94,5.0,Calm,Calm,-,N/A,,Clear,0,2013-01-17 10:35:00
5:55 AM,54.5,54.5,100,29.94,4.0,Calm,Calm,-,N/A,,Clear,0,2013-01-17 10:55:00
6:15 AM,54.5,54.5,100,29.95,5.0,Calm,Calm,-,N/A,,Clear,0,2013-01-17 11:15:00
6:35 AM,54.3,54.3,100,29.95,1.5,Calm,Calm,-,N/A,,Mist,0,2013-01-17 11:35:00
6:55 AM,54.5,54.5,100,29.96,2.5,Calm,Calm,-,N/A,,Clear,0,2013-01-17 11:55:00
7:15 AM,54.7,54.7,100,29.96,3.0,Calm,Calm,-,N/A,,Clear,0,2013-01-17 12:15:00
7:35 AM,54.3,54.3,100,29.97,2.0,Calm,Calm,-,N/A,,Clear,0,2013-01-17 12:35:00
7:55 AM,53.6,53.6,100,29.97,2.5,Calm,Calm,-,N/A,,Clear,0,2013-01-17 12:55:00
8:15 AM,53.6,53.6,100,29.99,1.5,Calm,Calm,-,N/A,,Mostly Cloudy,0,2013-01-17 13:15:00
8:35 AM,54.9,54.9,100,29.99,0.2,Calm,Calm,-,N/A,Fog,Fog,0,2013-01-17 13:35:00
8:55 AM,54.3,54.3,100,29.99,0.5,Calm,Calm,-,N/A,Fog,Fog,0,2013-01-17 13:55:00
9:15 AM,54.9,54.9,100,30.00,0.5,Calm,Calm,-,N/A,Fog,Fog,0,2013-01-17 14:15:00
9:35 AM,55.6,55.6,100,30.00,0.8,Calm,Calm,-,N/A,,Overcast,0,2013-01-17 14:35:00
9:55 AM,56.3,56.3,100,30.00,0.8,Calm,Calm,-,N/A,,Overcast,0,2013-01-17 14:55:00
10:15 AM,57.0,57.0,100,29.99,0.8,Calm,Calm,-,N/A,,Overcast,0,2013-01-17 15:15:00
10:35 AM,57.6,57.6,100,29.98,2.5,Calm,Calm,-,N/A,,Overcast,0,2013-01-17 15:35:00
10:55 AM,57.7,57.7,100,29.97,2.0,Calm,Calm,-,N/A,,Overcast,0,2013-01-17 15:55:00
11:15 AM,58.1,58.1,100,29.96,2.5,NNE,3.5,-,N/A,,Overcast,30,2013-01-17 16:15:00
11:35 AM,58.1,58.1,100,29.95,1.8,NNE,3.5,-,N/A,,Overcast,30,2013-01-17 16:35:00
11:55 AM,58.1,58.1,100,29.93,1.8,Calm,Calm,-,N/A,,Overcast,0,2013-01-17 16:55:00
12:15 PM,58.1,58.1,100,29.92,2.0,NE,3.5,-,N/A,,Overcast,40,2013-01-17 17:15:00
12:35 PM,58.3,57.7,98,29.91,2.5,NNE,4.6,-,N/A,,Overcast,20,2013-01-17 17:35:00
12:55 PM,58.3,57.4,97,29.89,2.5,NNE,5.8,-,N/A,,Overcast,30,2013-01-17 17:55:00
1:15 PM,58.5,57.2,96,29.88,3.0,NNE,4.6,-,N/A,,Overcast,30,2013-01-17 18:15:00
1:55 PM,58.5,56.5,93,29.85,4.0,NE,6.9,-,N/A,,Overcast,40,2013-01-17 18:55:00
2:15 PM,58.6,56.5,93,29.84,4.0,NE,5.8,-,N/A,,Overcast,50,2013-01-17 19:15:00
2:35 PM,58.1,56.3,94,29.84,4.0,NNE,5.8,-,N/A,,Overcast,30,2013-01-17 19:35:00
2:55 PM,58.3,56.3,93,29.83,5.0,NE,4.6,-,N/A,,Overcast,50,2013-01-17 19:55:00
3:15 PM,57.7,55.9,94,29.82,5.0,Calm,Calm,-,N/A,,Overcast,0,2013-01-17 20:15:00
3:35 PM,57.7,55.8,93,29.82,5.0,ENE,5.8,-,N/A,,Overcast,60,2013-01-17 20:35:00
3:55 PM,57.6,55.8,94,29.80,5.0,ENE,6.9,-,N/A,,Overcast,70,2013-01-17 20:55:00
4:15 PM,57.7,56.3,95,29.79,5.0,ENE,5.8,-,N/A,,Overcast,60,2013-01-17 21:15:00
4:35 PM,57.6,56.3,96,29.81,5.0,NNE,4.6,-,N/A,,Overcast,30,2013-01-17 21:35:00
4:55 PM,57.4,56.3,96,29.80,5.0,NNE,6.9,-,N/A,,Overcast,30,2013-01-17 21:55:00
5:15 PM,57.0,56.1,97,29.80,3.0,NNE,6.9,-,0.02,Rain,Heavy Rain,20,2013-01-17 22:15:00
5:35 PM,56.3,55.8,98,29.81,1.8,NNE,5.8,-,0.20,Rain,Light Rain,30,2013-01-17 22:35:00
5:55 PM,54.9,54.7,99,29.80,5.0,NE,4.6,-,0.22,Rain,Rain,40,2013-01-17 22:55:00
6:15 PM,54.0,53.8,99,29.80,5.0,ENE,8.1,-,0.02,Rain,Light Rain,60,2013-01-17 23:15:00
6:35 PM,53.2,53.1,99,29.79,5.0,NE,6.9,-,0.06,Rain,Rain,50,2013-01-17 23:35:00
6:55 PM,52.2,52.0,99,29.76,7.0,ENE,11.5,17.3,0.08,Rain,Rain,60,2013-01-17 23:55:00
7:15 PM,51.1,50.7,99,29.75,2.5,ENE,9.2,31.1,0.09,Rain,Rain,60,2013-01-18 00:15:00
7:35 PM,50.4,50.0,99,29.87,3.0,NNE,4.6,16.1,0.28,Rain,Heavy Rain,20,2013-01-18 00:35:00
7:55 PM,49.3,48.7,98,29.85,3.0,NNE,4.6,-,0.45,Rain,Heavy Rain,20,2013-01-18 00:55:00
8:15 PM,47.1,46.6,98,29.86,2.5,NNE,9.2,-,0.17,Rain,Heavy Rain,20,2013-01-18 01:15:00
8:35 PM,45.1,44.6,98,29.86,3.0,NNE,3.5,17.3,0.33,Rain,Heavy Rain,20,2013-01-18 01:35:00
8:55 PM,44.2,43.7,98,29.89,10.0,NNE,10.4,21.9,0.34,,Drizzle,30,2013-01-18 01:55:00
9:15 PM,43.2,42.3,97,29.91,10.0,North,6.9,19.6,0.01,,Drizzle,10,2013-01-18 02:15:00
9:55 PM,41.9,40.3,94,29.95,7.0,North,5.8,23.0,0.02,,Drizzle,10,2013-01-18 02:55:00
10:15 PM,41.5,40.3,95,29.97,7.0,North,8.1,-,N/A,,Light Drizzle,360,2013-01-18 03:15:00
10:35 PM,41.0,39.7,95,29.95,10.0,NNE,8.1,-,N/A,,Overcast,20,2013-01-18 03:35:00
10:55 PM,41.0,39.6,95,29.99,10.0,North,5.8,-,N/A,,Overcast,10,2013-01-18 03:55:00